Silver City, NM

6:01 AM MDT on October 22, 2019 (GMT -0600)
Grant County

Weather History for KSVC - September, 2019

Change the Weather History Date:

Thursday, September 19, 2019

  Actual Average (KDMN) Record (KDMN)
Temperature  
Mean Temperature 70 °F -  
Max Temperature 85 °F 86 °F 97 °F (1951)
Min Temperature 55 °F 53 °F 41 °F (1993)
Cooling Degree Days 4    
Growing Degree Days 20 (Base 50)    
Moisture  
Dew Point 49 °F    
Average Humidity 53    
Maximum Humidity 81    
Minimum Humidity 26    
Precipitation  
Precipitation 0.00 in - - ()
Sea Level Pressure  
Sea Level Pressure 30.08 in    
Wind  
Wind Speed 7 mph (NNW)    
Max Wind Speed 16 mph    
Max Gust Speed 23 mph    
Visibility 10 miles    
Events      
Averages and records for this station are not official NWS values.
T = Trace of Precipitation, MM = Missing Value Source: NWS Daily Summary

Daily Weather History Graph

Daily Weather History Graph

Search for Another Location

Airport or City:

Astronomy

Sep. 19, 2019 Rise Set
Actual Time 6:58 AM MDT 7:13 PM MDT
Civil Twilight 6:34 AM MDT 7:38 PM MDT
Nautical Twilight 6:05 AM MDT 8:06 PM MDT
Astronomical Twilight 5:36 AM MDT 8:35 PM MDT
Moon 10:41 PM MDT (9/19) 11:49 AM MDT (9/19)
Length of Visible Light 13h 03m
Length of Day
12h 14m
Waning Gibbous, 74% of the Moon is Illuminated
Sep 19
Waning Gibbous
Sep 21
Last Quarter
Sep 28
New
Oct 5
First Quarter
Oct 13
Full

Hourly Weather History & Observations

Time (MDT) Temp. Dew Point Humidity Pressure Visibility Wind Dir Wind Speed Gust Speed Precip Events Conditions
12:15 AM 60.3 °F 46.9 °F 61% 30.12 in 10.0 mi North 9.2 mph - N/A   Clear
12:35 AM 61.5 °F 46.4 °F 58% 30.13 in 10.0 mi North 8.1 mph - N/A   Clear
12:55 AM 59.5 °F 46.9 °F 63% 30.13 in 10.0 mi North 8.1 mph - N/A   Clear
1:15 AM 58.5 °F 47.3 °F 66% 30.13 in 10.0 mi NNW 3.5 mph - N/A   Clear
1:35 AM 59.5 °F 46.6 °F 62% 30.13 in 10.0 mi WNW 6.9 mph - N/A   Scattered Clouds
1:55 AM 57.4 °F 46.9 °F 68% 30.13 in 10.0 mi NNW 6.9 mph - N/A   Overcast
2:15 AM 57.2 °F 47.3 °F 69% 30.13 in 10.0 mi North 8.1 mph - N/A   Overcast
2:35 AM 59.0 °F 46.8 °F 64% 30.12 in 10.0 mi North 8.1 mph - N/A   Mostly Cloudy
2:55 AM 58.3 °F 47.3 °F 67% 30.12 in 10.0 mi North 6.9 mph - N/A   Scattered Clouds
3:15 AM 57.6 °F 47.3 °F 69% 30.11 in 10.0 mi North 9.2 mph - N/A   Scattered Clouds
3:35 AM 58.1 °F 47.3 °F 67% 30.11 in 10.0 mi NNW 3.5 mph - N/A   Scattered Clouds
3:55 AM 57.7 °F 47.7 °F 69% 30.12 in 10.0 mi North 9.2 mph - N/A   Clear
4:15 AM 58.6 °F 47.3 °F 66% 30.11 in 10.0 mi North 6.9 mph - N/A   Clear
4:35 AM 59.2 °F 47.8 °F 66% 30.11 in 10.0 mi North 8.1 mph - N/A   Clear
4:55 AM 57.6 °F 48.4 °F 71% 30.11 in 10.0 mi North 6.9 mph - N/A   Scattered Clouds
5:15 AM 57.0 °F 49.1 °F 75% 30.11 in 10.0 mi North 5.8 mph - N/A   Scattered Clouds
5:35 AM 56.3 °F 49.1 °F 77% 30.11 in 10.0 mi North 3.5 mph - N/A   Scattered Clouds
5:55 AM 55.0 °F 49.5 °F 81% 30.11 in 10.0 mi NNW 4.6 mph - N/A   Clear
6:15 AM 55.6 °F 49.5 °F 80% 30.11 in 10.0 mi North 6.9 mph - N/A   Clear
6:35 AM 56.3 °F 49.6 °F 78% 30.11 in 10.0 mi North 6.9 mph - N/A   Clear
6:55 AM 55.8 °F 50.0 °F 81% 30.11 in 10.0 mi North 8.1 mph - N/A   Clear
7:15 AM 56.3 °F 50.2 °F 80% 30.11 in 10.0 mi North 8.1 mph - N/A   Clear
7:55 AM 61.9 °F 51.6 °F 69% 30.12 in 10.0 mi NW 5.8 mph - N/A   Clear
8:15 AM 65.5 °F 52.2 °F 62% 30.12 in 10.0 mi North 5.8 mph - N/A   Clear
8:35 AM 68.9 °F 52.0 °F 55% 30.12 in 10.0 mi Calm Calm - N/A   Clear
8:55 AM 71.4 °F 50.5 °F 48% 30.12 in 10.0 mi Calm Calm - N/A   Clear
9:15 AM 72.9 °F 51.3 °F 47% 30.13 in 10.0 mi SSE 3.5 mph - N/A   Clear
9:35 AM 73.4 °F 51.4 °F 46% 30.13 in 10.0 mi South 4.6 mph - N/A   Clear
9:55 AM 74.3 °F 51.6 °F 45% 30.13 in 10.0 mi SSW 4.6 mph - N/A   Scattered Clouds
10:15 AM 75.2 °F 51.3 °F 43% 30.13 in 10.0 mi SSE 4.6 mph - N/A   Mostly Cloudy
10:35 AM 76.3 °F 51.1 °F 41% 30.13 in 10.0 mi Calm Calm - N/A   Overcast
10:55 AM 77.0 °F 50.7 °F 40% 30.13 in 10.0 mi Calm Calm - N/A   Scattered Clouds
11:15 AM 77.2 °F 50.9 °F 40% 30.12 in 10.0 mi Calm Calm - N/A   Clear
11:35 AM 78.8 °F 51.1 °F 38% 30.12 in 10.0 mi SSW 4.6 mph - N/A   Clear
11:55 AM 79.0 °F 49.8 °F 36% 30.12 in 10.0 mi WSW 4.6 mph - N/A   Clear
12:15 PM 80.8 °F 51.3 °F 36% 30.10 in 10.0 mi South 6.9 mph - N/A   Mostly Cloudy
12:35 PM 79.9 °F 50.4 °F 36% 30.09 in 10.0 mi East 6.9 mph - N/A   Overcast
12:55 PM 81.1 °F 50.4 °F 34% 30.08 in 10.0 mi South 4.6 mph - N/A   Overcast
1:15 PM 82.9 °F 50.4 °F 32% 30.08 in 10.0 mi South 12.7 mph 20.7 mph N/A   Overcast
1:35 PM 81.9 °F 49.6 °F 32% 30.06 in 10.0 mi SSE 10.4 mph 17.3 mph N/A   Overcast
1:55 PM 83.8 °F 50.2 °F 31% 30.06 in 10.0 mi South 15.0 mph 19.6 mph N/A   Scattered Clouds
2:15 PM 83.8 °F 49.3 °F 30% 30.05 in 10.0 mi SSW 11.5 mph 21.9 mph N/A   Scattered Clouds
2:35 PM 83.5 °F 48.6 °F 30% 30.05 in 10.0 mi South 13.8 mph 23.0 mph N/A   Clear
2:55 PM 83.3 °F 48.0 °F 29% 30.04 in 10.0 mi South 13.8 mph 17.3 mph N/A   Scattered Clouds
3:15 PM 84.4 °F 47.8 °F 28% 30.04 in 10.0 mi South 16.1 mph - N/A   Clear
3:35 PM 84.0 °F 47.8 °F 28% 30.02 in 10.0 mi SW 13.8 mph 18.4 mph N/A   Scattered Clouds
3:55 PM 83.1 °F 47.5 °F 29% 30.02 in 10.0 mi SW 11.5 mph 19.6 mph N/A   Clear
4:15 PM 81.5 °F 47.3 °F 30% 30.02 in 10.0 mi SSW 13.8 mph 19.6 mph N/A   Clear
4:35 PM 81.7 °F 45.0 °F 27% 30.02 in 10.0 mi WSW 11.5 mph 18.4 mph N/A   Clear
4:55 PM 81.3 °F 43.3 °F 26% 30.02 in 10.0 mi WSW 11.5 mph 18.4 mph N/A   Clear
5:15 PM 80.6 °F 43.2 °F 27% 30.02 in 10.0 mi SW 9.2 mph - N/A   Clear
5:35 PM 79.2 °F 44.8 °F 30% 30.02 in 10.0 mi South 9.2 mph 16.1 mph N/A   Clear
5:55 PM 74.8 °F 52.9 °F 46% 30.02 in 10.0 mi SE 15.0 mph - N/A   Clear
6:15 PM 75.4 °F 50.9 °F 42% 30.02 in 10.0 mi ESE 12.7 mph - N/A   Clear
6:35 PM 74.3 °F 50.0 °F 42% 30.02 in 10.0 mi ESE 10.4 mph - N/A   Clear
6:55 PM 73.2 °F 49.3 °F 43% 30.02 in 10.0 mi East 8.1 mph - N/A   Clear
7:15 PM 71.8 °F 49.8 °F 46% 30.02 in 10.0 mi ESE 5.8 mph - N/A   Clear
8:15 PM 70.7 °F 50.4 °F 48% 30.02 in 10.0 mi East 3.5 mph - N/A   Scattered Clouds
8:55 PM 68.9 °F 50.0 °F 51% 30.03 in 10.0 mi NW 9.2 mph - N/A   Mostly Cloudy
9:15 PM 66.9 °F 50.7 °F 56% 30.03 in 10.0 mi NNW 5.8 mph - N/A   Mostly Cloudy
9:35 PM 66.0 °F 51.6 °F 60% 30.03 in 10.0 mi NE 8.1 mph - N/A   Overcast
9:55 PM 64.9 °F 52.2 °F 63% 30.03 in 10.0 mi North 5.8 mph - N/A   Scattered Clouds
10:15 PM 62.2 °F 52.9 °F 71% 30.03 in 10.0 mi North 5.8 mph - N/A   Scattered Clouds
10:35 PM 63.1 °F 52.7 °F 69% 30.03 in 10.0 mi North 4.6 mph - N/A   Scattered Clouds
10:55 PM 61.0 °F 53.1 °F 75% 30.03 in 10.0 mi NNW 6.9 mph - N/A   Scattered Clouds
11:15 PM 61.3 °F 53.8 °F 76% 30.03 in 10.0 mi NNW 4.6 mph - N/A   Mostly Cloudy
11:35 PM 62.6 °F 53.8 °F 73% 30.04 in 10.0 mi NW 4.6 mph - N/A   Overcast